User: anonymous   Login
Location: Fremont
(37.5480°N, 121.9880°W)
Time: 13:25:26
(UTC-07:00)
Language:

Cosmos 1844 Rocket - Orbit

View from above orbital plane
View from above orbital plane
View from above satellite
View from above satellite

Ground track
Ground track

The orbit data is extracted from the following two-line orbital elements,

1 17974U 87041B   16179.88756817 +.00000201 +00000-0 +12340-3 0  9998
2 17974 071.0090 296.2998 0015309 221.2169 277.5484 14.17205539506288
Epoch (UTC): 27 June 2016 21:18:05
Eccentricity: 0.0015309
inclination: 71.0090°
perigee height: 824 km
apogee height: 846 km
right ascension of ascending node: 296.2998°
argument of perigee: 221.2169°
revolutions per day: 14.17205539
mean anomaly at epoch: 277.5484°
orbit number at epoch: 50628

The dashed part of the orbit path shows where the satellite is in the earth's shadow,  

DLR